Theta_e
319 320 322 322 319 322 323 322 321 318 318 320 321 322 321 317 322 322 320 319 317 318 319 319 319 320 317 317 317 317 315 314 310 312 316 317 317 319 321 323 324 323 324
316 318 320 321 321 321 321 321 322 320 322 316 319 319 320 318 319 318 319 317 318 317 317 319 319 322 318 318 317 315 315 317 313 310 314 312 311 319 321 321 322 323 322
314 313 318 320 321 320 320 321 321 320 319 319 319 317 319 320 317 320 319 316 317 317 316 318 319 318 318 317 317 315 315 317 315 312 310 312 312 319 319 320 320 321 321
314 311 313 318 318 319 319 320 317 314 314 316 317 318 316 317 316 317 314 320 316 318 316 318 317 317 318 318 317 316 316 315 312 312 311 312 314 316 317 316 316 318 316
311 314 311 318 319 318 319 319 317 315 316 316 316 317 317 317 316 319 319 318 315 314 315 319 318 317 316 317 319 316 316 314 312 310 310 311 311 313 313 316 314 311 310
313 311 315 316 317 316 317 314 313 314 316 317 317 318 316 318 307 311 318 318 319 316 316 316 319 317 314 314 314 316 317 314 314 313 312 312 313 313 316 315 312 310 306
314 314 312 313 316 316 316 314 313 314 316 316 317 319 317 313 307 308 310 319 319 318 318 315 314 317 319 317 313 314 314 315 317 318 315 315 315 317 317 313 314 315 313
310 313 310 313 314 315 314 313 313 316 314 316 319 316 318 316 305 306 307 319 319 319 318 317 313 318 311 311 317 317 317 319 320 323 320 320 321 321 320 319 317 316 317
307 308 311 312 313 313 313 311 312 314 315 319 317 319 317 311 304 304 307 316 318 317 314 319 319 315 307 304 316 315 318 314 311 309 307 307 306 306 309 319 313 313 311
308 309 310 312 312 312 313 313 314 313 315 316 318 320 317 315 302 301 306 315 315 314 319 315 311 311 304 303 317 318 314 316 315 315 314 312 312 311 309 318 318 312 311
309 309 310 312 312 313 313 314 314 316 317 316 315 320 318 317 315 301 301 315 314 316 314 315 314 303 302 302 301 315 307 309 312 311 318 319 317 318 315 316 319 317 311
308 308 308 310 310 311 313 313 313 314 313 314 317 316 315 318 312 302 301 302 311 315 315 314 310 300 300 301 304 301 303 304 312 311 312 313 316 316 316 317 317 320 321
306 307 308 309 308 311 310 312 311 312 310 310 313 314 315 316 317 304 300 300 302 310 314 309 300 298 299 300 300 300 299 311 313 314 313 315 318 321 322 322 321 320 319
306 306 306 305 306 309 309 311 309 310 309 311 308 309 315 315 315 316 317 313 304 308 305 308 307 307 306 310 306 302 308 311 312 313 315 315 319 319 317 318 316 317 315
306 304 304 304 304 305 307 310 310 311 305 306 307 308 309 312 309 302 305 311 315 312 313 316 310 312 311 311 311 312 310 312 311 313 313 315 315 315 314 314 313 314 313
304 304 303 301 303 303 304 307 298 299 296 297 296 298 308 299 297 297 299 299 300 298 311 313 312 313 311 312 310 310 312 312 313 314 313 313 312 314 314 315 313 312 311
306 304 302 300 302 303 304 306 305 307 301 298 296 295 295 295 295 296 298 299 297 299 314 315 314 314 312 313 314 312 311 313 314 311 311 314 314 314 312 312 312 312 311
305 301 303 301 301 301 302 305 307 305 303 306 298 297 296 295 295 296 295 294 310 305 313 312 312 315 314 315 314 313 315 315 314 312 311 313 312 312 311 312 313 313 312
302 302 302 301 300 300 300 303 303 304 307 303 308 300 301 296 297 296 294 309 313 313 313 312 313 315 313 316 317 317 314 314 313 313 314 312 313 312 310 310 311 304 305
303 299 298 301 300 300 299 299 300 301 303 303 303 305 306 302 303 307 313 314 314 314 314 314 315 317 312 315 316 316 316 313 314 313 313 312 314 313 309 309 312 311 305
303 302 297 301 301 300 299 299 299 300 300 301 302 302 291 303 302 304 308 316 317 317 319 316 317 315 313 314 316 312 315 312 313 313 312 312 312 312 313 313 312 309 308
303 301 301 301 301 299 299 300 299 299 300 300 301 302 291 303 305 303 305 310 312 316 318 318 317 314 314 317 315 315 313 312 314 313 313 313 312 312 311 311 310 309 307
303 302 302 300 301 298 300 300 301 301 300 301 301 301 302 303 303 304 304 307 309 311 313 316 316 317 319 320 319 319 315 313 311 316 314 313 313 312 312 311 310 308 307
304 303 301 301 302 301 301 301 301 296 298 299 301 302 303 303 303 304 304 305 307 309 311 314 314 316 318 319 318 317 310 305 311 311 312 316 315 311 312 312 311 309 308
304 304 304 303 302 302 302 302 300 301 302 302 301 299 302 303 302 302 304 305 306 307 309 310 312 314 315 313 310 303 293 289 299 292 312 313 316 313 312 310 310 310 310
306 305 305 304 303 303 303 303 303 303 302 303 304 301 299 298 299 301 302 304 305 306 308 309 310 311 313 314 303 289 286 286 292 287 299 311 313 313 313 313 313 310 310
Wind_Speed
8 8 5 5 6 9 5 6 6 4 10 8 7 7 7 4 6 5 6 4 6 5 4 5 6 4 1 3 2 3 3 3 2 1 1 5 2 5 5 10 13 10 10
11 7 7 8 10 9 7 7 7 8 5 5 9 7 7 4 6 5 3 4 4 5 5 4 5 2 3 3 1 3 3 3 2 3 3 3 6 2 8 12 9 9 9
13 14 9 9 8 9 9 7 6 6 8 7 8 7 8 5 7 4 2 4 4 4 5 2 3 4 2 1 2 2 2 4 5 6 5 4 2 10 7 8 9 9 8
10 10 10 10 11 11 9 6 5 4 5 14 10 9 1 7 6 6 1 3 4 5 4 3 4 5 4 3 3 3 4 6 4 7 6 5 7 6 6 8 8 7 9
9 10 8 8 10 11 7 5 5 5 8 14 6 8 2 7 7 7 4 4 3 7 4 3 3 4 5 6 2 2 4 4 6 6 4 3 4 5 7 4 5 7 4
13 10 9 8 8 9 6 3 6 10 11 10 8 7 8 7 7 9 5 4 2 7 4 5 3 2 6 5 4 3 4 4 4 4 5 4 6 4 3 6 7 6 5
10 8 11 11 11 11 6 6 8 11 11 7 6 4 7 5 10 8 7 3 1 4 2 4 4 5 3 5 1 6 5 3 1 5 6 6 5 3 4 4 4 5 4
11 10 10 10 12 11 4 7 6 8 5 9 6 7 9 8 12 9 7 3 3 5 3 5 5 2 5 5 3 4 6 5 6 5 6 6 6 3 6 6 6 5 3
8 10 11 12 13 11 5 4 6 9 9 4 4 9 6 5 12 11 7 5 5 5 6 5 5 4 4 7 5 2 5 6 4 9 8 7 7 7 6 2 3 4 4
14 13 13 7 11 12 10 6 6 6 9 6 8 10 6 7 9 13 9 4 4 4 4 4 7 7 6 5 5 5 2 4 6 5 3 3 1 3 3 1 2 2 3
13 15 16 10 8 10 9 8 6 6 7 7 6 3 1 4 9 13 13 6 4 4 3 4 4 10 7 4 5 4 2 4 2 0 4 4 4 4 3 3 2 3 3
12 12 13 12 11 8 10 9 10 4 6 6 4 4 1 7 8 13 13 12 3 0 3 3 6 11 7 4 4 3 6 6 4 3 3 4 5 5 4 4 3 3 4
13 13 13 10 9 10 7 9 8 3 2 4 5 6 4 6 4 8 10 9 8 1 3 5 12 9 9 4 4 4 2 4 4 4 3 4 3 4 8 5 3 3 2
11 12 11 10 11 9 7 5 7 4 3 2 4 6 5 2 3 2 4 3 5 4 3 5 8 7 8 5 5 4 4 4 5 4 4 2 5 5 4 5 4 4 4
10 8 10 10 9 10 4 1 5 4 4 4 5 5 7 4 3 3 5 4 4 7 10 6 5 6 7 5 5 7 7 7 6 4 3 4 2 5 5 5 4 4 6
9 8 7 8 10 8 9 5 5 3 3 6 5 4 5 6 6 5 2 10 8 3 5 5 6 6 7 8 8 8 9 10 8 6 5 4 4 3 4 4 6 5 5
8 8 6 8 6 8 8 7 6 1 2 1 1 4 6 3 3 6 8 7 8 5 4 4 7 8 6 5 7 8 8 7 6 5 4 4 5 4 3 2 3 4 4
8 9 6 6 5 7 7 6 5 3 5 2 4 1 4 4 1 2 2 1 4 3 5 5 5 4 3 2 4 4 2 4 4 4 2 3 4 3 3 3 4 4 3
8 8 7 7 4 6 6 6 7 5 2 5 4 5 4 9 3 5 3 6 5 6 7 7 7 1 5 3 1 2 4 2 3 2 1 4 3 3 4 5 5 5 5
6 3 7 6 4 3 5 7 7 8 8 7 6 5 5 5 5 4 4 5 5 6 3 3 3 3 3 4 4 2 3 3 4 3 4 3 3 4 5 7 6 4 5
2 6 6 6 3 6 5 6 6 6 5 6 7 6 5 5 3 5 6 3 5 5 3 3 4 4 2 6 6 5 7 5 5 6 5 5 5 5 5 5 5 3 3
6 4 8 2 3 3 3 4 4 4 6 6 6 7 5 4 2 3 6 5 4 4 3 3 4 4 10 4 6 6 4 4 4 5 7 7 8 9 7 4 4 4 4
5 7 5 5 1 2 3 4 4 5 5 5 5 5 5 5 6 5 6 5 6 6 7 4 5 6 5 3 4 8 6 3 6 8 1 4 4 4 4 3 4 5 4
4 4 4 6 7 4 3 4 4 5 3 5 6 5 4 4 4 5 6 6 7 5 6 6 6 9 7 6 5 7 7 6 4 6 12 7 4 3 4 3 4 6 5
3 5 6 6 7 8 5 6 5 5 4 5 3 4 5 5 4 5 5 6 6 6 6 6 4 6 7 10 9 9 8 10 7 7 7 8 7 7 11 4 10 7 4
5 4 4 5 5 6 8 6 6 5 5 5 4 5 5 5 5 5 5 5 5 6 7 5 6 8 8 0 8 5 5 8 8 6 4 6 5 7 7 8 8 4 5
Wind_Direction
31 6 351 315 279 260 253 229 227 208 247 260 263 249 253 282 242 257 265 311 302 286 280 240 285 251 33 315 253 247 263 245 257 28 292 6 79 125 214 125 125 124 122
347 342 4 346 328 303 279 266 263 264 267 229 274 268 267 243 253 256 293 317 322 332 317 7 0 356 147 321 348 6 11 18 102 90 20 8 70 289 119 114 115 117 123
348 351 339 333 318 297 279 275 274 304 301 279 258 224 253 243 250 181 68 326 335 338 316 48 45 29 24 319 42 73 123 75 62 89 54 32 311 125 108 108 121 117 123
337 333 337 324 323 305 274 253 267 277 300 292 267 260 130 272 290 125 121 293 353 345 342 51 31 24 16 26 20 2 125 97 95 92 50 41 65 53 91 123 132 137 137
336 318 322 320 316 320 304 255 269 280 256 266 251 279 318 248 243 150 193 155 227 310 319 16 83 68 52 57 108 303 90 111 119 113 124 114 123 144 157 172 150 134 160
316 324 320 329 328 311 289 244 261 276 271 268 260 188 182 249 137 130 130 113 226 225 297 32 330 151 105 68 63 82 112 137 108 152 175 186 195 185 197 179 146 141 152
325 329 323 332 338 333 319 258 256 262 275 286 262 268 267 168 155 154 144 201 265 303 305 83 10 14 99 128 147 102 123 93 212 82 90 131 103 103 114 106 135 150 161
332 340 339 354 342 339 340 333 323 307 292 278 240 202 252 173 165 168 177 196 226 267 257 173 183 258 67 35 351 194 125 71 70 91 76 74 87 32 142 148 168 187 180
330 327 333 352 335 332 325 299 298 310 320 300 299 276 215 161 165 165 171 215 216 240 254 233 178 122 32 18 348 231 131 130 95 87 91 94 102 83 54 89 162 167 196
336 336 329 349 338 328 323 273 269 292 293 293 246 263 189 163 194 175 177 241 186 224 272 188 134 158 156 51 14 342 93 85 113 131 110 80 80 97 68 12 305 308 247
332 347 340 336 336 333 340 319 295 270 278 286 316 290 316 309 201 198 188 216 239 205 239 221 169 156 174 108 49 48 69 338 47 321 169 167 189 181 202 221 300 46 47
332 328 327 340 327 339 336 331 332 304 330 314 313 298 166 259 244 198 194 208 180 37 309 232 153 159 170 168 110 67 21 350 296 235 232 201 192 190 196 179 195 75 72
337 336 333 331 347 332 338 348 337 23 353 328 321 320 242 208 278 178 197 216 227 220 296 131 132 152 161 177 156 155 301 285 274 272 226 200 142 119 119 127 110 137 145
342 336 327 341 335 332 331 12 337 332 20 329 349 340 341 14 8 182 136 214 222 185 164 132 151 171 193 206 165 195 229 262 279 321 307 257 148 134 153 169 173 185 194
332 347 348 337 342 312 325 38 318 12 39 354 31 339 348 48 28 53 56 342 300 207 178 177 180 201 195 199 211 195 207 222 235 248 280 301 241 170 178 183 203 182 198
336 347 340 343 342 343 326 336 92 93 117 98 102 352 36 63 34 344 39 291 281 320 205 201 192 217 222 209 204 210 206 208 205 197 204 243 276 264 204 182 193 195 204
337 330 338 342 341 333 340 347 331 95 85 102 47 70 47 320 288 198 225 229 300 348 235 231 206 223 226 259 207 207 202 204 186 187 206 218 224 257 257 222 201 209 204
353 325 350 350 342 340 340 343 342 41 358 285 258 266 25 341 263 267 296 165 221 214 268 259 262 231 230 329 309 10 224 150 162 178 203 226 239 249 262 260 216 229 209
3 351 338 323 346 336 339 331 339 331 202 289 184 235 20 351 318 158 174 255 237 230 211 226 254 118 339 234 274 330 341 77 88 79 283 205 236 245 260 262 263 228 169
332 237 279 314 315 331 11 344 342 334 342 346 339 27 31 8 342 334 240 234 238 258 15 265 294 327 322 258 247 252 228 223 186 205 221 238 277 226 237 249 242 235 190
310 296 284 338 338 34 338 343 335 330 328 319 321 352 11 328 287 308 304 264 282 298 305 343 304 276 254 316 253 229 234 228 208 185 205 205 218 241 231 242 250 234 239
287 322 307 29 17 13 327 302 286 313 311 323 333 323 320 303 360 281 296 331 326 294 316 320 273 222 238 247 348 303 287 299 255 196 211 213 208 218 231 234 236 218 232
330 330 339 331 332 263 273 282 297 314 317 308 316 315 323 336 321 341 333 335 348 341 325 313 303 313 338 360 340 328 346 17 11 318 281 296 264 235 218 204 214 240 228
303 300 302 310 306 294 257 295 295 237 269 305 319 319 303 300 303 303 307 313 308 296 314 326 344 357 359 345 30 40 18 349 355 339 351 294 309 274 238 247 260 245 227
288 277 281 283 290 294 254 252 256 279 288 242 256 285 304 310 303 291 295 292 292 295 270 288 317 334 2 51 51 38 18 325 27 17 333 325 342 346 343 237 257 264 243
278 250 268 287 270 278 289 262 239 235 241 256 210 214 233 250 254 257 268 276 277 287 298 298 297 304 297 148 81 65 358 349 1 16 332 310 315 296 278 318 325 338 296